VRE737 DFFD-DRRN

Flight info

Callsign VRE737
Flight time 0h 41m
Altitude 31000
Route DEKAS1N DEKAS UQ594 VOSIP DCT BANGA ETROT1R
Aircraft A319/M-SDE3FGHIRWY/LB1

Departure

Time 2026-04-23 03:06
Airport Ouagadougou Thomas Sankara International Airport (DFFD)

Arrival

Time 2026-04-23 03:47
Airport Diori Hamani International Airport (DRRN)
Time Latitude Longitude Altitude Speed Heading
2026-04-23 02:34 12.35397 -1.51421 1017 ft 0 kts 301°
2026-04-23 02:55 12.35391 -1.51411 1016 ft 2 kts 304°
2026-04-23 02:56 12.35382 -1.51397 1016 ft 2 kts 301°
2026-04-23 02:56 12.35374 -1.51382 1016 ft 2 kts 280°
2026-04-23 02:56 12.35377 -1.51366 1016 ft 2 kts 216°
2026-04-23 02:56 12.35389 -1.51357 1016 ft 1 kts 213°
2026-04-23 02:57 12.35391 -1.51356 1016 ft 0 kts 213°
2026-04-23 03:00 12.35390 -1.51357 1016 ft 1 kts 213°
2026-04-23 03:01 12.35385 -1.51360 1016 ft 1 kts 213°
2026-04-23 03:01 12.35368 -1.51371 1016 ft 5 kts 213°
2026-04-23 03:01 12.35321 -1.51403 1017 ft 11 kts 213°
2026-04-23 03:01 12.35245 -1.51454 1019 ft 14 kts 212°
2026-04-23 03:02 12.35163 -1.51508 1021 ft 14 kts 213°
2026-04-23 03:02 12.35082 -1.51563 1023 ft 13 kts 213°
2026-04-23 03:02 12.35017 -1.51523 1025 ft 13 kts 121°
2026-04-23 03:02 12.34949 -1.51490 1025 ft 12 kts 198°
2026-04-23 03:03 12.34873 -1.51531 1028 ft 13 kts 213°
2026-04-23 03:03 12.34798 -1.51581 1030 ft 13 kts 213°
2026-04-23 03:03 12.34723 -1.51631 1033 ft 13 kts 213°
2026-04-23 03:03 12.34647 -1.51682 1034 ft 14 kts 213°
2026-04-23 03:04 12.34563 -1.51737 1035 ft 15 kts 212°
2026-04-23 03:04 12.34470 -1.51798 1037 ft 16 kts 214°
2026-04-23 03:04 12.34374 -1.51863 1039 ft 17 kts 212°
2026-04-23 03:04 12.34272 -1.51933 1040 ft 18 kts 217°
2026-04-23 03:05 12.34198 -1.52015 1042 ft 12 kts 161°
2026-04-23 03:05 12.34231 -1.51962 1041 ft 12 kts 34°
2026-04-23 03:05 12.34322 -1.51899 1039 ft 27 kts 33°
2026-04-23 03:05 12.34702 -1.51646 1033 ft 103 kts 33°
2026-04-23 03:06 12.35478 -1.51129 1037 ft 159 kts 34°
2026-04-23 03:06 12.36424 -1.50494 1643 ft 163 kts 32°
2026-04-23 03:06 12.37365 -1.49863 2426 ft 160 kts 34°
2026-04-23 03:06 12.38307 -1.49229 3105 ft 168 kts 35°
2026-04-23 03:07 12.39342 -1.48528 3502 ft 189 kts 35°
2026-04-23 03:07 12.40501 -1.47741 3869 ft 212 kts 35°
2026-04-23 03:07 12.41793 -1.46868 4247 ft 234 kts 34°
2026-04-23 03:07 12.43223 -1.45907 4724 ft 258 kts 34°
2026-04-23 03:08 12.44761 -1.44879 5466 ft 268 kts 35°
2026-04-23 03:08 12.46340 -1.43823 6365 ft 273 kts 35°
2026-04-23 03:08 12.47943 -1.42748 7254 ft 277 kts 35°
2026-04-23 03:08 12.49566 -1.41660 8194 ft 281 kts 35°
2026-04-23 03:09 12.51211 -1.40557 9113 ft 285 kts 36°
2026-04-23 03:09 12.52878 -1.39438 10025 ft 290 kts 36°
2026-04-23 03:09 12.54633 -1.38257 10418 ft 314 kts 36°
2026-04-23 03:09 12.56369 -1.36833 11002 ft 325 kts 47°
2026-04-23 03:10 12.57768 -1.35005 11780 ft 328 kts 60°
2026-04-23 03:10 12.58740 -1.32882 12595 ft 332 kts 71°
2026-04-23 03:10 12.59573 -1.30664 13430 ft 336 kts 71°
2026-04-23 03:10 12.60416 -1.28414 14174 ft 341 kts 70°
2026-04-23 03:11 12.61273 -1.26131 14873 ft 346 kts 70°
2026-04-23 03:11 12.62142 -1.23812 15569 ft 352 kts 69°
2026-04-23 03:11 12.63026 -1.21457 16249 ft 357 kts 69°
2026-04-23 03:11 12.63923 -1.19067 16935 ft 362 kts 68°
2026-04-23 03:12 12.64837 -1.16639 17597 ft 368 kts 68°
2026-04-23 03:12 12.65765 -1.14181 18240 ft 373 kts 68°
2026-04-23 03:12 12.66708 -1.11679 18810 ft 378 kts 68°
2026-04-23 03:12 12.67657 -1.09153 19392 ft 383 kts 68°
2026-04-23 03:13 12.68619 -1.06586 19960 ft 388 kts 68°
2026-04-23 03:13 12.69580 -1.04020 20521 ft 393 kts 68°
2026-04-23 03:13 12.70565 -1.01386 21091 ft 398 kts 68°
2026-04-23 03:13 12.71563 -0.98724 21653 ft 404 kts 68°
2026-04-23 03:14 12.72574 -0.96025 22212 ft 408 kts 68°
2026-04-23 03:14 12.73597 -0.93289 22773 ft 413 kts 69°
2026-04-23 03:14 12.74629 -0.90527 23325 ft 418 kts 69°
2026-04-23 03:14 12.75676 -0.87725 23806 ft 423 kts 68°
2026-04-23 03:15 12.76732 -0.84904 24307 ft 425 kts 68°
2026-04-23 03:15 12.77794 -0.82067 24818 ft 428 kts 68°
2026-04-23 03:15 12.78862 -0.79216 25330 ft 430 kts 67°
2026-04-23 03:15 12.79936 -0.76354 25831 ft 432 kts 67°
2026-04-23 03:16 12.81015 -0.73474 26324 ft 434 kts 66°
2026-04-23 03:16 12.82096 -0.70583 26807 ft 436 kts 66°
2026-04-23 03:16 12.84267 -0.64760 27757 ft 440 kts 65°
2026-04-23 03:17 12.85331 -0.61814 28217 ft 443 kts 69°
2026-04-23 03:17 12.86016 -0.58704 28679 ft 451 kts 79°
2026-04-23 03:17 12.86171 -0.55478 29132 ft 458 kts 89°
2026-04-23 03:17 12.85909 -0.52205 29567 ft 462 kts 91°
2026-04-23 03:18 12.85618 -0.48914 29980 ft 465 kts 91°
2026-04-23 03:18 12.85325 -0.45609 30330 ft 468 kts 91°
2026-04-23 03:18 12.85038 -0.42321 30668 ft 470 kts 91°
2026-04-23 03:18 12.84746 -0.38939 30816 ft 471 kts 92°
2026-04-23 03:19 12.84457 -0.35676 30851 ft 458 kts 92°
2026-04-23 03:19 12.84171 -0.32491 30849 ft 442 kts 92°
2026-04-23 03:19 12.83635 -0.26342 30851 ft 429 kts 91°
2026-04-23 03:20 12.83113 -0.20259 30854 ft 427 kts 91°
2026-04-23 03:20 12.82585 -0.14185 30850 ft 427 kts 91°
2026-04-23 03:21 12.82048 -0.08126 30847 ft 427 kts 91°
2026-04-23 03:21 12.81649 -0.02070 30845 ft 423 kts 83°
2026-04-23 03:22 12.82781 0.03706 30840 ft 414 kts 68°
2026-04-23 03:22 12.84511 0.09335 30835 ft 414 kts 68°
2026-04-23 03:23 12.86238 0.14964 30826 ft 414 kts 68°
2026-04-23 03:23 12.87962 0.20590 30826 ft 414 kts 68°
2026-04-23 03:24 12.89687 0.26224 30826 ft 414 kts 68°
2026-04-23 03:24 12.91410 0.31864 30823 ft 414 kts 68°
2026-04-23 03:25 12.93131 0.37470 30822 ft 414 kts 68°
2026-04-23 03:25 12.94862 0.43110 30820 ft 415 kts 68°
2026-04-23 03:26 12.96586 0.48762 30683 ft 416 kts 68°
2026-04-23 03:26 12.97448 0.51592 30458 ft 416 kts 68°
2026-04-23 03:26 12.98311 0.54417 30232 ft 415 kts 68°
2026-04-23 03:27 12.99169 0.57234 29997 ft 412 kts 68°
2026-04-23 03:27 13.00017 0.60027 29538 ft 410 kts 68°
2026-04-23 03:27 13.00862 0.62809 29068 ft 408 kts 68°
2026-04-23 03:27 13.01705 0.65579 28624 ft 406 kts 68°
2026-04-23 03:28 13.02541 0.68333 28176 ft 404 kts 68°
2026-04-23 03:28 13.03376 0.71088 27726 ft 403 kts 69°
2026-04-23 03:28 13.04209 0.73824 27281 ft 403 kts 69°
2026-04-23 03:28 13.05042 0.76569 26831 ft 402 kts 69°
2026-04-23 03:29 13.05871 0.79305 26371 ft 402 kts 69°
2026-04-23 03:29 13.06704 0.82042 25909 ft 402 kts 70°
2026-04-23 03:29 13.07524 0.84740 25437 ft 402 kts 70°
2026-04-23 03:29 13.08353 0.87476 24958 ft 402 kts 71°
2026-04-23 03:30 13.09184 0.90225 24465 ft 403 kts 71°
2026-04-23 03:30 13.10010 0.92969 23969 ft 404 kts 71°
2026-04-23 03:30 13.10842 0.95727 23467 ft 405 kts 72°
2026-04-23 03:30 13.11677 0.98489 22894 ft 406 kts 72°
2026-04-23 03:31 13.12513 1.01248 22478 ft 402 kts 72°
2026-04-23 03:31 13.13345 1.03990 21961 ft 402 kts 72°
2026-04-23 03:31 13.14166 1.06695 21618 ft 395 kts 72°
2026-04-23 03:31 13.14977 1.09376 21063 ft 392 kts 72°
2026-04-23 03:32 13.15778 1.12034 20532 ft 387 kts 72°
2026-04-23 03:32 13.16570 1.14661 20015 ft 383 kts 72°
2026-04-23 03:32 13.17356 1.17258 19498 ft 379 kts 72°
2026-04-23 03:32 13.18133 1.19830 18997 ft 375 kts 71°
2026-04-23 03:33 13.18904 1.22378 18505 ft 371 kts 71°
2026-04-23 03:33 13.19664 1.24893 18015 ft 368 kts 71°
2026-04-23 03:33 13.20418 1.27387 17468 ft 364 kts 71°
2026-04-23 03:33 13.21152 1.29822 16951 ft 361 kts 72°
2026-04-23 03:34 13.21888 1.32269 16440 ft 357 kts 72°
2026-04-23 03:34 13.22617 1.34694 15940 ft 353 kts 72°
2026-04-23 03:34 13.23339 1.37095 15439 ft 350 kts 72°
2026-04-23 03:34 13.24057 1.39477 14959 ft 347 kts 72°
2026-04-23 03:35 13.24767 1.41834 14495 ft 344 kts 72°
2026-04-23 03:35 13.25473 1.44173 14026 ft 341 kts 72°
2026-04-23 03:35 13.26169 1.46489 13578 ft 338 kts 72°
2026-04-23 03:35 13.26856 1.48781 13038 ft 334 kts 72°
2026-04-23 03:36 13.27535 1.51048 12388 ft 330 kts 72°
2026-04-23 03:36 13.28207 1.53291 11870 ft 326 kts 72°
2026-04-23 03:36 13.28869 1.55501 11450 ft 321 kts 72°
2026-04-23 03:36 13.29514 1.57648 11051 ft 317 kts 72°
2026-04-23 03:37 13.30160 1.59791 10649 ft 312 kts 72°
2026-04-23 03:37 13.30797 1.61907 10334 ft 305 kts 72°
2026-04-23 03:37 13.31410 1.63950 10074 ft 297 kts 72°
2026-04-23 03:37 13.32015 1.65972 9674 ft 295 kts 72°
2026-04-23 03:38 13.32608 1.67956 9404 ft 286 kts 72°
2026-04-23 03:38 13.33179 1.69863 9260 ft 273 kts 72°
2026-04-23 03:38 13.33724 1.71681 9139 ft 261 kts 72°
2026-04-23 03:38 13.34244 1.73419 9026 ft 249 kts 72°
2026-04-23 03:39 13.34746 1.75093 8921 ft 243 kts 72°
2026-04-23 03:39 13.35241 1.76742 8806 ft 241 kts 72°
2026-04-23 03:39 13.35843 1.78361 8453 ft 243 kts 65°
2026-04-23 03:39 13.36312 1.79397 8232 ft 241 kts 64°
2026-04-23 03:40 13.37052 1.80931 7903 ft 238 kts 63°
2026-04-23 03:40 13.37794 1.82441 7581 ft 236 kts 63°
2026-04-23 03:40 13.38528 1.83946 7262 ft 235 kts 63°
2026-04-23 03:40 13.39252 1.85443 6946 ft 234 kts 64°
2026-04-23 03:41 13.39966 1.86939 6630 ft 233 kts 64°
2026-04-23 03:41 13.40670 1.88429 6317 ft 231 kts 65°
2026-04-23 03:41 13.41366 1.89910 5994 ft 230 kts 65°
2026-04-23 03:41 13.42056 1.91386 5674 ft 228 kts 65°
2026-04-23 03:42 13.42744 1.92856 5365 ft 228 kts 65°
2026-04-23 03:42 13.43431 1.94328 5049 ft 228 kts 64°
2026-04-23 03:42 13.44122 1.95809 4745 ft 231 kts 65°
2026-04-23 03:42 13.44820 1.97304 4420 ft 234 kts 64°
2026-04-23 03:43 13.45513 1.98785 4101 ft 233 kts 64°
2026-04-23 03:43 13.46209 2.00273 3896 ft 228 kts 65°
2026-04-23 03:43 13.46891 2.01738 3663 ft 228 kts 65°
2026-04-23 03:43 13.47508 2.03235 3361 ft 229 kts 77°
2026-04-23 03:44 13.47622 2.04868 3063 ft 227 kts 87°
2026-04-23 03:44 13.47677 2.06483 2649 ft 224 kts 86°
2026-04-23 03:44 13.47746 2.08048 2345 ft 212 kts 86°
2026-04-23 03:44 13.47814 2.09513 2085 ft 198 kts 85°
2026-04-23 03:45 13.47878 2.10897 1840 ft 190 kts 85°
2026-04-23 03:45 13.47941 2.12229 1617 ft 184 kts 85°
2026-04-23 03:45 13.47999 2.13495 1411 ft 167 kts 85°
2026-04-23 03:45 13.48052 2.14620 1202 ft 148 kts 87°
2026-04-23 03:46 13.48099 2.15634 1020 ft 138 kts 87°
2026-04-23 03:46 13.48145 2.16608 836 ft 136 kts 88°
2026-04-23 03:46 13.48191 2.17555 733 ft 121 kts 87°
2026-04-23 03:46 13.48222 2.18271 727 ft 76 kts 86°
2026-04-23 03:47 13.48242 2.18683 722 ft 51 kts 88°
2026-04-23 03:47 13.48257 2.19026 717 ft 47 kts 88°
2026-04-23 03:47 13.48271 2.19350 714 ft 41 kts 87°
2026-04-23 03:47 13.48278 2.19605 713 ft 28 kts 98°
2026-04-23 03:48 13.48271 2.19708 713 ft 8 kts 352°
2026-04-23 03:48 13.48284 2.19635 714 ft 16 kts 266°
2026-04-23 03:48 13.48278 2.19509 712 ft 18 kts 267°
2026-04-23 03:48 13.48272 2.19375 713 ft 19 kts 267°
2026-04-23 03:49 13.48266 2.19233 715 ft 22 kts 267°
2026-04-23 03:49 13.48258 2.19065 716 ft 24 kts 267°
2026-04-23 03:49 13.48249 2.18895 719 ft 24 kts 267°
2026-04-23 03:49 13.48242 2.18726 722 ft 24 kts 268°
2026-04-23 03:50 13.48235 2.18557 724 ft 24 kts 268°
2026-04-23 03:50 13.48227 2.18386 726 ft 24 kts 267°
2026-04-23 03:50 13.48219 2.18211 727 ft 25 kts 268°
2026-04-23 03:50 13.48212 2.18032 728 ft 25 kts 266°
2026-04-23 03:51 13.48201 2.17848 728 ft 26 kts 267°
2026-04-23 03:51 13.48180 2.17662 728 ft 26 kts 236°
2026-04-23 03:51 13.48037 2.17642 731 ft 18 kts 177°
2026-04-23 03:51 13.47908 2.17648 731 ft 18 kts 176°
2026-04-23 03:52 13.47831 2.17683 730 ft 10 kts 81°
2026-04-23 03:52 13.47788 2.17741 730 ft 11 kts 130°
2026-04-23 03:52 13.47789 2.17771 730 ft 0 kts 66°